User: anonymous   Login
Location: Unspecified
(0.0000°N, 0.0000°E)
Time: 17:25:49
(UTC+00:00)
Language:

Cosmos 1500 Rocket - Orbit

View from above orbital plane
View from above orbital plane
View from above satellite
View from above satellite

Ground track
Ground track

The orbit data is extracted from the following two-line orbital elements,

1 14373U 83099B   22224.64575864  .00000252  00000-0  27197-4 0  9993
2 14373  82.5394 284.9616 0021332 130.9129 229.3938 14.83999954 78937
Epoch (UTC): 12 August 2022 15:29:53
Eccentricity: 0.0021332
inclination: 82.5394°
perigee height: 602 km
apogee height: 631 km
right ascension of ascending node: 284.9616°
argument of perigee: 130.9129°
revolutions per day: 14.83999954
mean anomaly at epoch: 229.3938°
orbit number at epoch: 7893

The dashed part of the orbit path shows where the satellite is in the earth's shadow,  

DLR